• In India
  • List of Countries
  • For 7 days
  • Water Temperature
  • Satellite Maps
  • Weather Map
  • Weather Widgets
  • user-avatar
    Login

    Hourly Weather Elbasan

    Today, 21 September, Friday

    Time Temperature Precipitation Wind Pressure Humidity
    00:00 +21°C° 0 mm 1 mps 736 mmHg 57%
    01:00 +21°C° 0 mm 1 mps 736 mmHg 57%
    02:00 +21°C° 0 mm 1 mps 736 mmHg 57%
    03:00 +21°C° 0 mm 1 mps 736 mmHg 58%
    04:00 +19°C° 0 mm 2 mps 736 mmHg 59%
    05:00 +20°C° 0 mm 2 mps 736 mmHg 58%
    06:00 +21°C° 0 mm 2 mps 736 mmHg 56%
    07:00 +23°C° 0 mm 2 mps 736 mmHg 52%
    08:00 +25°C° 0 mm 2 mps 736 mmHg 46%
    09:00 +27°C° 0 mm 1 mps 736 mmHg 39%
    10:00 +30°C° 0 mm 1 mps 737 mmHg 33%
    11:00 +30°C° 0 mm 2 mps 736 mmHg 31%
    12:00 +31°C° 0 mm 2 mps 736 mmHg 30%
    13:00 +31°C° 0 mm 3 mps 736 mmHg 28%
    14:00 +31°C° 0 mm 3 mps 736 mmHg 32%
    15:00 +30°C° 0 mm 3 mps 736 mmHg 37%
    16:00 +29°C° 0 mm 3 mps 735 mmHg 41%
    17:00 +27°C° 0 mm 2 mps 736 mmHg 52%
    18:00 +25°C° 0 mm 1 mps 736 mmHg 64%
    19:00 +22°C° 0 mm 1 mps 736 mmHg 75%
    20:00 +22°C° 0 mm 1 mps 736 mmHg 78%
    21:00 +22°C° 0 mm 1 mps 736 mmHg 80%
    22:00 +21°C° 0 mm 1 mps 736 mmHg 83%
    23:00 +21°C° 0 mm 1 mps 737 mmHg 82%

    Tomorrow, 22 September, Saturday

    Time Temperature Precipitation Wind Pressure Humidity
    00:00 +21°C° 0 mm 1 mps 737 mmHg 82%
    01:00 +20°C° 0 mm 1 mps 737 mmHg 82%
    02:00 +20°C° 0 mm 1 mps 737 mmHg 81%
    03:00 +20°C° 0 mm 1 mps 736 mmHg 81%
    04:00 +20°C° 0 mm 1 mps 736 mmHg 80%
    05:00 +21°C° 0 mm 1 mps 737 mmHg 75%
    06:00 +22°C° 0 mm 1 mps 737 mmHg 70%
    07:00 +23°C° 0 mm 1 mps 737 mmHg 65%
    08:00 +25°C° 0 mm 1 mps 737 mmHg 58%
    09:00 +27°C° 0 mm 1 mps 737 mmHg 50%
    10:00 +29°C° 0 mm 1 mps 737 mmHg 43%
    11:00 +30°C° 0 mm 2 mps 737 mmHg 41%
    12:00 +30°C° 0 mm 2 mps 737 mmHg 38%
    13:00 +31°C° 0 mm 3 mps 737 mmHg 36%
    14:00 +30°C° 0 mm 3 mps 737 mmHg 40%
    15:00 +30°C° 0 mm 3 mps 737 mmHg 45%
    16:00 +29°C° 0 mm 3 mps 736 mmHg 49%
    17:00 +27°C° 0 mm 2 mps 737 mmHg 59%
    18:00 +24°C° 0 mm 2 mps 737 mmHg 70%
    19:00 +22°C° 0 mm 1 mps 737 mmHg 80%
    20:00 +22°C° 0 mm 1 mps 738 mmHg 81%
    21:00 +22°C° 0 mm 1 mps 738 mmHg 81%
    22:00 +21°C° 0 mm 1 mps 738 mmHg 82%
    23:00 +21°C° 0 mm 1 mps 738 mmHg 81%

    Day after tomorrow, 23 September, Sunday

    Time Temperature Precipitation Wind Pressure Humidity
    00:00 +21°C° 0 mm 1 mps 738 mmHg 80%
    01:00 +21°C° 0 mm 1 mps 738 mmHg 78%
    02:00 +21°C° 0 mm 1 mps 738 mmHg 78%
    03:00 +20°C° 0 mm 1 mps 738 mmHg 77%
    04:00 +20°C° 0 mm 1 mps 738 mmHg 77%
    05:00 +21°C° 0 mm 1 mps 738 mmHg 72%
    06:00 +22°C° 0 mm 1 mps 739 mmHg 68%
    07:00 +23°C° 0 mm 1 mps 739 mmHg 63%
    08:00 +26°C° 0 mm 1 mps 739 mmHg 55%
    09:00 +28°C° 0 mm 1 mps 739 mmHg 47%
    10:00 +30°C° 0 mm 1 mps 740 mmHg 39%
    11:00 +31°C° 0 mm 2 mps 739 mmHg 36%
    12:00 +32°C° 0 mm 2 mps 739 mmHg 34%
    13:00 +34°C° 0 mm 3 mps 739 mmHg 32%
    14:00 +33°C° 0 mm 3 mps 739 mmHg 34%
    15:00 +31°C° 0 mm 3 mps 738 mmHg 37%
    16:00 +31°C° 0 mm 3 mps 738 mmHg 39%
    17:00 +28°C° 0 mm 2 mps 738 mmHg 47%
    18:00 +26°C° 0 mm 1 mps 738 mmHg 55%
    19:00 +23°C° 0 mm 1 mps 739 mmHg 62%
    20:00 +23°C° 0 mm 1 mps 739 mmHg 63%
    21:00 +23°C° 0 mm 1 mps 739 mmHg 63%
    22:00 +23°C° 0 mm 1 mps 739 mmHg 63%
    23:00 +22°C° 0 mm 1 mps 738 mmHg 63%

    24 September, Monday

    Time Temperature Precipitation Wind Pressure Humidity
    00:00 +22°C° 0 mm 1 mps 738 mmHg 63%
    01:00 +22°C° 0 mm 1 mps 738 mmHg 64%
    02:00 +22°C° 0 mm 1 mps 737 mmHg 65%
    03:00 +21°C° 0 mm 1 mps 737 mmHg 66%
    04:00 +21°C° 0 mm 1 mps 737 mmHg 67%
    05:00 +22°C° 0 mm 1 mps 737 mmHg 64%
    06:00 +23°C° 0 mm 1 mps 737 mmHg 61%
    07:00 +24°C° 0 mm 1 mps 737 mmHg 58%
    08:00 +26°C° 0 mm 2 mps 736 mmHg 50%
    09:00 +28°C° 0 mm 2 mps 736 mmHg 42%
    10:00 +30°C° 0 mm 2 mps 736 mmHg 34%
    11:00 +30°C° 0 mm 3 mps 736 mmHg 33%
    12:00 +31°C° 0 mm 3 mps 735 mmHg 31%
    13:00 +33°C° 0 mm 3 mps 735 mmHg 29%
    14:00 +31°C° 0 mm 3 mps 735 mmHg 32%
    15:00 +30°C° 0 mm 3 mps 734 mmHg 35%
    16:00 +29°C° 0 mm 3 mps 734 mmHg 38%
    17:00 +27°C° 0 mm 2 mps 734 mmHg 47%
    18:00 +25°C° 0 mm 2 mps 734 mmHg 55%
    19:00 +23°C° 0 mm 1 mps 735 mmHg 63%
    20:00 +22°C° 0 mm 1 mps 735 mmHg 65%
    21:00 +21°C° 0 mm 1 mps 736 mmHg 66%
    22:00 +20°C° 0 mm 2 mps 736 mmHg 68%
    23:00 +19°C° 0 mm 2 mps 736 mmHg 68%

    25 September, Tuesday

    Time Temperature Precipitation Wind Pressure Humidity
    00:00 +18°C° 0 mm 2 mps 736 mmHg 69%
    01:00 +18°C° 0 mm 2 mps 737 mmHg 69%
    02:00 +17°C° 0 mm 3 mps 737 mmHg 69%
    03:00 +17°C° 0 mm 3 mps 737 mmHg 69%
    04:00 +16°C° 0 mm 3 mps 737 mmHg 68%
    05:00 +15°C° 0 mm 4 mps 737 mmHg 66%
    06:00 +15°C° 0 mm 4 mps 738 mmHg 63%
    07:00 +17°C° 0 mm 4 mps 738 mmHg 60%
    08:00 +18°C° 0 mm 4 mps 739 mmHg 54%
    09:00 +20°C° 0 mm 4 mps 739 mmHg 49%
    10:00 +21°C° 0 mm 4 mps 739 mmHg 43%
    11:00 +21°C° 0 mm 5 mps 739 mmHg 42%
    12:00 +22°C° 0 mm 5 mps 739 mmHg 41%
    13:00 +22°C° 0 mm 5 mps 739 mmHg 40%
    14:00 +21°C° 0 mm 5 mps 739 mmHg 40%
    15:00 +21°C° 0 mm 5 mps 739 mmHg 40%
    16:00 +20°C° 0 mm 5 mps 739 mmHg 40%
    17:00 +19°C° 0 mm 5 mps 739 mmHg 41%
    18:00 +16°C° 0 mm 5 mps 740 mmHg 41%
    19:00 +15°C° 0 mm 5 mps 740 mmHg 41%
    20:00 +14°C° 0 mm 5 mps 740 mmHg 40%
    21:00 +13°C° 0 mm 5 mps 741 mmHg 40%
    22:00 +13°C° 0 mm 6 mps 741 mmHg 39%
    23:00 +12°C° 0 mm 5 mps 742 mmHg 41%

    26 September, Wednesday

    Time Temperature Precipitation Wind Pressure Humidity
    00:00 +10°C° 0 mm 5 mps 742 mmHg 43%
    01:00 +10°C° 0 mm 5 mps 742 mmHg 45%
    02:00 +9°C° 0 mm 5 mps 742 mmHg 44%
    03:00 +9°C° 0 mm 5 mps 742 mmHg 44%
    04:00 +8°C° 0 mm 5 mps 742 mmHg 44%
    05:00 +9°C° 0 mm 5 mps 743 mmHg 42%
    06:00 +10°C° 0 mm 6 mps 743 mmHg 40%
    07:00 +11°C° 0 mm 6 mps 743 mmHg 37%
    08:00 +13°C° 0 mm 6 mps 743 mmHg 34%
    09:00 +15°C° 0 mm 6 mps 743 mmHg 30%
    10:00 +17°C° 0 mm 6 mps 743 mmHg 26%
    11:00 +19°C° 0 mm 6 mps 743 mmHg 24%
    12:00 +19°C° 0 mm 6 mps 743 mmHg 22%
    13:00 +20°C° 0 mm 5 mps 743 mmHg 20%
    14:00 +20°C° 0 mm 5 mps 742 mmHg 20%
    15:00 +20°C° 0 mm 5 mps 742 mmHg 20%
    16:00 +20°C° 0 mm 4 mps 742 mmHg 21%
    17:00 +17°C° 0 mm 4 mps 743 mmHg 24%
    18:00 +14°C° 0 mm 3 mps 743 mmHg 28%
    19:00 +12°C° 0 mm 3 mps 743 mmHg 31%
    20:00 +12°C° 0 mm 3 mps 743 mmHg 33%
    21:00 +11°C° 0 mm 3 mps 744 mmHg 35%
    22:00 +11°C° 0 mm 3 mps 744 mmHg 38%
    23:00 +10°C° 0 mm 3 mps 744 mmHg 39%
    Show more